TimeEST,TemperatureF,Dew PointF,Humidity,Sea Level PressureIn,VisibilityMPH,Wind Direction,Wind SpeedMPH,Gust SpeedMPH,PrecipitationIn,Events,Conditions,WindDirDegrees,DateUTC
12:06 AM,26.6,17.6,69,29.93,2.5,West,18.4,33.4,0.00,Snow,Light Snow,280,2013-02-20 05:06:00
12:24 AM,26.6,15.8,64,29.93,4.0,West,10.4,-,0.00,Snow,Light Snow,280,2013-02-20 05:24:00
12:36 AM,26.6,17.6,69,29.93,2.5,West,11.5,18.4,0.00,Snow,Light Snow,280,2013-02-20 05:36:00
12:51 AM,25.0,17.1,72,30.00,5.0,West,8.1,-,0.00,Snow,Light Snow,260,2013-02-20 05:51:00
1:04 AM,26.6,15.8,64,29.94,5.0,West,10.4,20.7,0.00,Snow,Light Snow,260,2013-02-20 06:04:00
1:51 AM,25.0,12.9,60,30.01,9.0,WNW,9.2,16.1,0.00,Snow,Light Snow,290,2013-02-20 06:51:00
2:03 AM,24.8,15.8,69,29.94,2.0,West,10.4,-,0.00,Snow,Light Snow,270,2013-02-20 07:03:00
2:10 AM,24.8,15.8,69,29.94,1.8,West,13.8,20.7,0.00,Snow,Light Snow,270,2013-02-20 07:10:00
2:19 AM,24.8,15.8,69,29.94,2.0,West,16.1,27.6,0.00,Snow,Light Snow,270,2013-02-20 07:19:00
2:34 AM,24.8,15.8,69,29.95,5.0,West,12.7,23.0,0.00,Snow,Light Snow,270,2013-02-20 07:34:00
2:51 AM,24.1,15.1,69,30.01,5.0,WNW,8.1,-,0.00,Snow,Light Snow,290,2013-02-20 07:51:00
3:09 AM,23.0,15.8,74,29.94,2.5,WNW,10.4,-,0.00,Snow,Light Snow,300,2013-02-20 08:09:00
3:16 AM,23.0,15.8,74,29.94,3.0,NW,8.1,-,0.00,Snow,Light Snow,310,2013-02-20 08:16:00
3:19 AM,23.0,15.8,74,29.94,2.5,WNW,8.1,-,0.00,Snow,Light Snow,300,2013-02-20 08:19:00
3:30 AM,21.2,17.6,86,29.95,1.0,NW,9.2,-,0.00,Snow,Light Snow,310,2013-02-20 08:30:00
3:37 AM,23.0,15.8,74,29.95,1.5,West,11.5,28.8,0.00,Snow,Light Snow,280,2013-02-20 08:37:00
3:39 AM,23.0,15.8,74,29.95,2.0,WNW,11.5,28.8,0.00,Snow,Light Snow,290,2013-02-20 08:39:00
3:47 AM,23.0,15.8,74,29.95,7.0,WNW,11.5,19.6,0.00,Snow,Light Snow,290,2013-02-20 08:47:00
3:51 AM,23.0,15.1,72,30.02,8.0,West,9.2,17.3,0.00,Snow,Light Snow,280,2013-02-20 08:51:00
4:07 AM,23.0,15.8,74,29.95,2.5,West,15.0,25.3,0.00,Snow,Light Snow,270,2013-02-20 09:07:00
4:18 AM,21.2,15.8,80,29.95,4.0,WNW,13.8,23.0,0.00,Snow,Light Snow,290,2013-02-20 09:18:00
4:34 AM,21.2,15.8,80,29.96,7.0,NW,10.4,-,0.00,Snow,Light Snow,310,2013-02-20 09:34:00
4:51 AM,21.9,14.0,72,30.04,3.0,WNW,16.1,24.2,0.00,Snow,Light Snow,300,2013-02-20 09:51:00
5:36 AM,21.2,14.0,74,29.99,2.0,Variable,3.5,19.6,0.00,Snow,Light Snow,0,2013-02-20 10:36:00
5:51 AM,21.0,15.1,78,30.08,1.8,WNW,9.2,-,0.00,Snow,Light Snow,290,2013-02-20 10:51:00
6:03 AM,21.2,14.0,74,30.00,2.5,WNW,18.4,26.5,0.00,Snow,Light Snow,290,2013-02-20 11:03:00
6:12 AM,21.2,12.2,68,30.00,3.0,WNW,12.7,23.0,0.00,Snow,Light Snow,290,2013-02-20 11:12:00
6:51 AM,21.0,12.0,68,30.09,9.0,West,8.1,16.1,0.00,,Overcast,280,2013-02-20 11:51:00
7:29 AM,19.4,14.0,80,30.03,2.0,WNW,6.9,-,0.00,Snow,Light Snow,300,2013-02-20 12:29:00
7:35 AM,19.4,14.0,80,30.03,1.2,Variable,5.8,-,0.00,Snow,Light Snow,0,2013-02-20 12:35:00
7:47 AM,19.4,12.2,74,30.04,3.0,WSW,16.1,24.2,0.00,Snow,Light Snow,250,2013-02-20 12:47:00
7:51 AM,19.9,10.9,68,30.12,5.0,West,9.2,20.7,0.00,Snow,Light Snow,280,2013-02-20 12:51:00
8:08 AM,19.4,12.2,74,30.04,2.5,Variable,6.9,17.3,0.00,Snow,Light Snow,0,2013-02-20 13:08:00
8:36 AM,19.4,12.2,74,30.05,1.2,WSW,8.1,-,N/A,Snow,Light Snow,250,2013-02-20 13:36:00
8:49 AM,19.4,12.2,74,30.05,3.0,West,9.2,18.4,0.00,Snow,Light Snow,260,2013-02-20 13:49:00
8:51 AM,19.9,12.0,71,30.13,3.0,West,10.4,18.4,0.00,Snow,Light Snow,260,2013-02-20 13:51:00
9:10 AM,21.2,12.2,68,30.04,9.0,West,6.9,-,0.00,,Overcast,260,2013-02-20 14:10:00
9:51 AM,21.0,10.0,63,30.14,10.0,West,6.9,17.3,0.00,,Overcast,280,2013-02-20 14:51:00
10:51 AM,21.9,10.0,60,30.15,10.0,WSW,11.5,23.0,0.00,,Overcast,240,2013-02-20 15:51:00
11:51 AM,23.0,10.9,60,30.15,7.0,West,11.5,19.6,0.00,Snow,Light Snow,260,2013-02-20 16:51:00
12:51 PM,23.0,12.0,63,30.14,6.0,West,9.2,-,0.00,Snow,Light Snow,260,2013-02-20 17:51:00
1:51 PM,25.0,10.9,55,30.13,10.0,West,12.7,25.3,0.00,,Overcast,260,2013-02-20 18:51:00
2:51 PM,24.1,10.9,57,30.15,10.0,West,10.4,16.1,N/A,,Overcast,260,2013-02-20 19:51:00
3:51 PM,23.0,12.0,63,30.17,7.0,WSW,12.7,-,0.00,Snow,Light Snow,240,2013-02-20 20:51:00
4:51 PM,24.1,10.9,57,30.19,10.0,WNW,12.7,19.6,0.00,,Overcast,300,2013-02-20 21:51:00
5:51 PM,23.0,10.9,60,30.21,9.0,WNW,4.6,19.6,0.00,,Overcast,290,2013-02-20 22:51:00
6:51 PM,21.0,12.9,71,30.23,5.0,NNW,9.2,-,0.00,Snow,Light Snow,330,2013-02-20 23:51:00
7:51 PM,19.9,10.9,68,30.24,9.0,NW,9.2,-,0.00,,Overcast,320,2013-02-21 00:51:00
8:51 PM,19.9,9.0,62,30.26,10.0,NNW,10.4,-,N/A,,Overcast,340,2013-02-21 01:51:00
9:51 PM,19.0,10.0,68,30.26,10.0,NW,5.8,-,N/A,,Overcast,320,2013-02-21 02:51:00
10:51 PM,18.0,10.0,71,30.25,8.0,NW,6.9,-,0.00,,Overcast,320,2013-02-21 03:51:00
11:51 PM,18.0,10.0,71,30.24,10.0,NW,6.9,-,N/A,,Overcast,320,2013-02-21 04:51:00